Regional Weather Roundup
Issued by NWS Goodland, KS

Home | Current Version | Previous Version | Graphics & Text | Print | Product List | Glossary On
Versions: 1 2 3 4 5 6 7 8 9 10 11 12 13 14 15 16 17 18 19 20 21 22 23 24 25 26 27 28 29 30 31 32 33 34 35 36 37 38 39 40 41 42 43 44 45 46 47 48 49 50
000
ASUS43 KGLD 270408
RWRGLD

GOODLAND FORECAST AREA HOURLY WEATHER ROUNDUP
NATIONAL WEATHER SERVICE GOODLAND KS
1000 PM MDT FRI MAY 26 2017

...OFFICIAL OBSERVATIONS...

CITY           SKY/WX    TMP DP  RH WIND       PRES   REMARKS
GOODLAND KS    TSTM      51  49  92 N29G49    29.94R FOG
HILL CITY KS   CLOUDY    66  57  72 NE7       29.88R
IMPERIAL NEB   CLOUDY    59  50  72 SE18G28   29.88R
MCCOOK NEB     LGT RAIN  61  57  87 W13       29.94R
AKRON CO       CLOUDY    54  47  77 N18       29.87R
BURLINGTON CO  TSTM      51  49  92 SE13G21   29.93F
LIMON CO       CLOUDY    56  44  64 S10       29.85F
$$

...UNOFFICIAL OBSERVATIONS...

CITY           SKY/WX    TMP DP  RH WIND       PRES   REMARKS
LENORA KS        N/A     59  32  36 MISG        N/A
NORTON KS      CLEAR     61  50  67 E3        29.89S
SHARON SPRINGS   N/A     64  55  73 SE13G23     N/A
TRENTON NEB      N/A     59  32  36 SE10        N/A
$$



USA.gov is the U.S. government's official web portal to all federal, state and local government web resources and services.